星链-36606(STARLINK-36606)

导读

STARLINK-36606是美国星链计划中的卫星,于2026年2月16日发射升空,隶属于SpaceX公司的星链卫星互联网星座项目。星链项目旨在构建全球卫星互联网,为全球偏远地区、海洋上空等提供高速网络接入服务,该卫星将进一步扩充星链星座的在轨规模,提升网络服务覆盖范围与稳定性。

Basic Information
目录编号:
67845
目录名称:
STARLINK-36606
国际标识:
2026-033AA
轨道中心:
EARTH
卫星名称:
星链-36606
卫星全名:
星链-36606(STARLINK-36606)
卫星状态:
在轨 (已飞行201 天)
发射日期:
2026-02-16 UTC
国别 :
美国 (US)
星等 :
--
Orbit Information
数据来源 国际轨道数据 AOE轨道数据
星历时间 2026-09-05T14:50:34+0800
6小时前
查看轨道信息
2026-09-01T02:00:00+0800
4天前
查看轨道信息
半长轴 6861.179km 6861.192km
偏心率 0.0001289 0.0002056
轨道倾角 43.002° 43.003°
近地点辐角 273.616° 272.495°
升交点赤经 332.537° 358.153°
平近点角 86.455° 318.448°
近地点 482.157km 481.644km
远地点 483.927km 484.466km
周期 94.267分钟 94.267分钟
每日圈数 15.275826 15.275781
Detailed Information
固有亮度:
5
最大亮度:
2.5
卫星平台:
Starlink V1.0
覆盖范围:
全球
运营商:
太空探索技术公司
运营商所在国:
美国
制造商(研发单位):
太空探索技术公司
制造商所在国:
美国
使用方式:
暂无
Satellite Introduction
Starlink 计划是 SpaceX 推出的全球卫星互联网项目,通过发射低轨道卫星,为全球尤其是偏远地区提供高速、低延迟的互联网服务。自 2019 年起,Starlink 已部署数千颗卫星,旨在缩小全球数字鸿沟,推动互联网普及。该项目还为军事、航空等行业提供通信支持,带来广泛经济效益。
2D Orbit Map
3D Orbit Map
Orbit Altitude Analysis Chart
Orbit Inclination Analysis Chart
Orbit Comprehensive Analysis Chart
View Comprehensive Chart
Conjunction Data List
Event ID Objects TCA Miss Dist (km) Collision Risk Probability Collision Risk Index (CRI) Action
CDM_260907-065505-861106-784523
2026-09-07T
06:55:16+0000
0.261 km
中距离
4.714767E-4 高风险 0.88
CDM_260907-082905-861106-784523
2026-09-07T
08:29:25+0000
1.717 km
极远距离
2.8937E-6 低风险 0.44
CDM_260907-052105-861106-784523
2026-09-07T
05:21:07+0000
1.958 km
极远距离
2.025035E-6 低风险 0.41
CDM_260906-173006-394006-784521
2026-09-06T
17:30:21+0000
2.834 km
极远距离
1.291079E-6 低风险 0.37
CDM_260907-084006-784506-976321
2026-09-07T
08:40:22+0000
2.820 km
极远距离
7.030288E-7 极低风险 0.32